Weather History for Plant City, FL

Change the Weather History Date:

Thursday, August 22, 2013

  Actual Average Record
Temperature  
Mean Temperature 90 °F -  
Max Temperature 93 °F 91 °F 98 °F (1980)
Min Temperature 80 °F 71 °F 63 °F (1973)
Cooling Degree Days 25    
Growing Degree Days 40 (Base 50)    
Moisture  
Dew Point 75 °F    
Average Humidity 62    
Maximum Humidity 79    
Minimum Humidity 56    
Precipitation  
Precipitation 1.25 in - - ()
Sea Level Pressure  
Sea Level Pressure 30.07 in    
Wind  
Wind Speed 4 mph (ENE)    
Max Wind Speed 14 mph    
Max Gust Speed 22 mph    
Visibility 9 miles    
Events Rain    
Averages and records for this station are not official NWS values.
T = Trace of Precipitation, MM = Missing Value Source: NWS Daily Summary

Daily Weather History Graph

Daily Weather History Graph

Search for Another Location

Airport:

Trip Planner

Search our weather history database for the weather conditions in past years. The results will help you decide how hot, cold, wet, or windy it might be!

Date:

Astronomy

Aug. 22, 2013 Rise Set
Actual Time 7:02 AM EDT 7:59 PM EDT
Civil Twilight 6:38 AM EDT 8:24 PM EDT
Nautical Twilight 6:09 AM EDT 8:52 PM EDT
Astronomical Twilight 5:40 AM EDT 9:22 PM EDT
Moon 9:00 PM EDT (8/22) 8:35 AM EDT (8/22)
Length of Visible Light 13h 45m
Length of Day
12h 57m
Waning Gibbous, 97% of the Moon is Illuminated
Aug 22
Waning Gibbous
Aug 28
Last Quarter
Sep 5
New
Sep 12
First Quarter
Sep 19
Full

Hourly Weather History & Observations

Time (EDT) Temp. Heat Index Dew Point Humidity Pressure Visibility Wind Dir Wind Speed Gust Speed Precip Events Conditions
12:15 AM - - - N/A% 30.11 in 10.0 mi East 4.6 mph - N/A   Clear
12:35 AM - - - N/A% 30.10 in 10.0 mi East 3.5 mph - N/A   Clear
12:55 AM - - - N/A% 30.10 in 10.0 mi East 4.6 mph - N/A   Clear
1:15 AM - - - N/A% 30.09 in 10.0 mi East 3.5 mph - N/A   Clear
1:35 AM - - - N/A% 30.10 in 10.0 mi East 5.8 mph - N/A   Clear
1:55 AM - - - N/A% 30.10 in 10.0 mi East 3.5 mph - N/A   Clear
2:15 AM - - - N/A% 30.09 in 10.0 mi East 3.5 mph - N/A   Clear
2:35 AM - - - N/A% 30.09 in 10.0 mi East 3.5 mph - N/A   Clear
2:55 AM - - - N/A% 30.09 in 10.0 mi Calm Calm - N/A   Clear
3:15 AM - - - N/A% 30.09 in 10.0 mi East 4.6 mph - N/A   Clear
3:35 AM - - - N/A% 30.08 in 10.0 mi ENE 4.6 mph - N/A   Clear
3:55 AM - - - N/A% 30.08 in 10.0 mi East 4.6 mph - N/A   Clear
4:15 AM - - - N/A% 30.07 in 10.0 mi Calm Calm - N/A   Clear
4:35 AM - - - N/A% 30.07 in 10.0 mi East 4.6 mph - N/A   Clear
4:55 AM - - - N/A% 30.06 in 10.0 mi ENE 4.6 mph - N/A   Clear
5:15 AM - - - N/A% 30.06 in 10.0 mi ENE 4.6 mph - N/A   Clear
5:35 AM - - - N/A% 30.06 in 10.0 mi East 3.5 mph - N/A   Clear
5:55 AM - - - N/A% 30.07 in 10.0 mi East 3.5 mph - N/A   Clear
6:15 AM - - - N/A% 30.08 in 10.0 mi Calm Calm - N/A   Clear
6:35 AM - - - N/A% 30.08 in 10.0 mi ENE 3.5 mph - N/A   Clear
6:55 AM - - - N/A% 30.08 in 10.0 mi Calm Calm - N/A   Clear
7:15 AM - - - N/A% 30.08 in 10.0 mi Calm Calm - N/A   Clear
7:35 AM - - - N/A% 30.09 in 10.0 mi Calm Calm - N/A   Clear
7:55 AM - - - N/A% 30.09 in 10.0 mi Calm Calm - N/A   Clear
8:15 AM - - - N/A% 30.10 in 10.0 mi East 3.5 mph - N/A   Clear
8:35 AM - - - N/A% 30.11 in 10.0 mi East 4.6 mph - N/A   Clear
8:55 AM - - - N/A% 30.10 in 10.0 mi East 4.6 mph - N/A   Clear
9:15 AM - - - N/A% 30.10 in 10.0 mi East 8.1 mph - N/A   Clear
9:35 AM - - - N/A% 30.11 in 10.0 mi East 5.8 mph - N/A   Clear
9:55 AM - - - N/A% 30.11 in 10.0 mi East 8.1 mph - N/A   Scattered Clouds
10:15 AM - - - N/A% 30.12 in 10.0 mi East 9.2 mph - N/A   Scattered Clouds
10:35 AM - - - N/A% 30.12 in 10.0 mi ESE 4.6 mph - N/A   Scattered Clouds
10:55 AM - - - N/A% 30.11 in 10.0 mi ESE 5.8 mph - N/A   Scattered Clouds
11:15 AM - - - N/A% 30.11 in 10.0 mi ESE 6.9 mph - N/A   Scattered Clouds
11:35 AM - - - N/A% 30.10 in 10.0 mi East 6.9 mph - N/A   Scattered Clouds
11:55 AM - - - N/A% 30.09 in 10.0 mi East 5.8 mph - N/A   Scattered Clouds
12:15 PM - - - N/A% - - North - - N/A   Unknown
12:35 PM - - - N/A% - - North - - N/A   Unknown
12:55 PM - - - N/A% - - North - - N/A   Unknown
1:15 PM - - - N/A% - - North - - N/A   Unknown
1:35 PM 91.4 °F 102.5 °F 75.2 °F 59% 30.06 in 10.0 mi Calm Calm - N/A   Mostly Cloudy
1:55 PM 91.4 °F 102.5 °F 75.2 °F 59% 30.05 in 10.0 mi ESE 5.8 mph - 0.01 in   Mostly Cloudy
2:15 PM 87.8 °F 99.7 °F 77.0 °F 70% 30.06 in 7.0 mi Calm Calm - 0.01 in Rain Light Rain
2:35 PM 91.4 °F 102.5 °F 75.2 °F 59% 30.04 in 10.0 mi Calm Calm - 0.01 in   Scattered Clouds
2:55 PM 91.4 °F 102.5 °F 75.2 °F 59% 30.03 in 10.0 mi NNE 8.1 mph - 0.01 in   Mostly Cloudy
3:15 PM 91.4 °F 102.5 °F 75.2 °F 59% 30.01 in 10.0 mi NNW 4.6 mph - N/A   Mostly Cloudy
3:35 PM 93.2 °F 105.0 °F 75.2 °F 56% 30.01 in 10.0 mi NNW 6.9 mph - N/A   Scattered Clouds
3:55 PM 80.6 °F 85.4 °F 73.4 °F 79% 30.04 in 2.0 mi ESE 13.8 mph 21.9 mph 0.11 in Rain Heavy Rain
4:15 PM - - - N/A% 30.06 in 0.8 mi ENE 5.8 mph 21.9 mph 0.67 in Rain Heavy Rain
4:35 PM - - - N/A% 30.04 in 10.0 mi NNE 4.6 mph - 0.73 in Rain Light Rain
4:55 PM - - - N/A% 30.05 in 7.0 mi Calm Calm - 0.74 in Rain Light Rain
5:15 PM - - - N/A% 30.06 in 7.0 mi Calm Calm - 0.05 in Rain Light Rain
5:35 PM - - - N/A% 30.06 in 10.0 mi NNW 5.8 mph - 0.05 in Rain Light Rain
5:55 PM - - - N/A% 30.05 in 2.0 mi North 9.2 mph - 0.19 in Rain Heavy Rain
6:15 PM - - - N/A% 30.05 in 5.0 mi North 6.9 mph - 0.06 in Rain Rain
6:35 PM - - - N/A% 30.06 in 7.0 mi North 6.9 mph - 0.10 in Rain Light Rain
6:55 PM - - - N/A% 30.06 in 10.0 mi North 5.8 mph - 0.10 in Rain Light Rain
7:15 PM - - - N/A% 30.06 in 10.0 mi Calm Calm - 0.01 in   Scattered Clouds
7:35 PM - - - N/A% 30.06 in 10.0 mi NE 3.5 mph - 0.01 in   Clear
7:55 PM - - - N/A% 30.05 in 10.0 mi Calm Calm - 0.01 in Rain Rain
8:15 PM - - - N/A% 30.04 in 10.0 mi Calm Calm - 0.02 in Rain Rain
8:35 PM - - - N/A% 30.04 in 10.0 mi Calm Calm - 0.03 in Rain Light Rain
8:55 PM - - - N/A% 30.03 in 10.0 mi Calm Calm - 0.05 in Rain Light Rain
9:15 PM - - - N/A% 30.03 in 10.0 mi Calm Calm - 0.01 in Rain Light Rain
9:35 PM - - - N/A% 30.04 in 10.0 mi Calm Calm - 0.01 in Rain Light Rain
9:55 PM - - - N/A% 30.04 in 10.0 mi East 4.6 mph - 0.02 in Rain Light Rain
10:15 PM - - - N/A% 30.04 in 10.0 mi East 5.8 mph - N/A   Light Drizzle
10:35 PM - - - N/A% 30.05 in 10.0 mi Calm Calm - N/A Rain Light Rain
10:55 PM - - - N/A% 30.05 in 10.0 mi East 3.5 mph - 0.01 in Rain Light Rain
11:15 PM - - - N/A% 30.05 in 10.0 mi ENE 3.5 mph - N/A   Clear
11:35 PM - - - N/A% 30.05 in 10.0 mi Calm Calm - N/A   Clear
11:55 PM - - - N/A% 30.05 in 10.0 mi Calm Calm - N/A   Clear